Overview Statistics Trail Chart Weather Telemetry Raw packets
 

This is the latest recevied weather packets stored in our database for station/object DL2GFH-3. If no packets are shown the sender has not sent any weather packets the latest 10 day(s).

<< 16 17 18 19 20 21 22 >>
Time Temp. Humidity Pressure Rain* Wind** Luminosity Snow
1777339363 17.78° C 30% 1016.8 hPa - - - -
1777338458 17.78° C 30% 1016.7 hPa - - - -
1777337553 18.33° C 30% 1016.8 hPa - - - -
1777336647 18.33° C 30% 1016.9 hPa - - - -
1777335742 18.89° C 30% 1016.9 hPa - - - -
1777334836 18.33° C 30% 1017.1 hPa - - - -
1777333931 18.33° C 30% 1017.1 hPa - - - -
1777333026 18.33° C 30% 1017.2 hPa - - - -
1777332120 18.33° C 30% 1017.2 hPa - - - -
1777331215 18.33° C 30% 1017.1 hPa - - - -
1777330309 18.89° C 30% 1017 hPa - - - -
1777329404 18.89° C 30% 1017 hPa - - - -
1777328498 18.89° C 30% 1017.2 hPa - - - -
1777327593 18.89° C 30% 1017.3 hPa - - - -
1777326688 19.44° C 30% 1017.3 hPa - - - -
1777325782 19.44° C 30% 1017.3 hPa - - - -
1777324877 19.44° C 30% 1017.4 hPa - - - -
1777323971 20° C 30% 1017.6 hPa - - - -
1777323066 20° C 29% 1017.7 hPa - - - -
1777322161 20° C 29% 1017.7 hPa - - - -
1777321255 20.56° C 29% 1017.7 hPa - - - -
1777320350 20.56° C 29% 1017.5 hPa - - - -
1777319444 21.11° C 28% 1017.5 hPa - - - -
1777318539 21.67° C 28% 1017.6 hPa - - - -
1777317633 22.22° C 27% 1017.6 hPa - - - -

* Rain since midnight (hover to see other rain measurements)
** Current wind speed in m/s (hover to see current wind gust speed)